Temp
-9 -9 -9 -9 -9 -10 -10 -10 -10 -10 -10 -10 -10 -10 -10 -10 -10 -10 -10 -10 -10 -10 -10 -11 -11 -11 -12 -12 -12 -12 -12 -11 -11 -11 -11 -11 -11 -11 -11 -12 -12 -12 -12
-8 -8 -9 -9 -9 -10 -10 -10 -10 -10 -10 -10 -11 -11 -11 -11 -11 -11 -11 -10 -10 -11 -11 -11 -11 -11 -12 -12 -12 -12 -12 -12 -12 -11 -11 -11 -11 -11 -12 -12 -12 -12 -12
-9 -9 -9 -9 -9 -10 -10 -10 -10 -10 -10 -10 -10 -11 -11 -11 -11 -11 -11 -11 -11 -11 -11 -11 -11 -12 -12 -12 -12 -12 -12 -12 -12 -12 -12 -12 -12 -12 -12 -12 -12 -12 -12
-9 -9 -9 -9 -10 -10 -10 -10 -10 -10 -10 -11 -11 -11 -11 -11 -11 -11 -11 -11 -11 -12 -12 -12 -12 -12 -12 -12 -12 -12 -12 -12 -12 -12 -12 -12 -12 -11 -11 -12 -12 -12 -12
-9 -9 -9 -9 -10 -10 -10 -10 -11 -11 -11 -11 -11 -11 -11 -12 -12 -11 -12 -12 -12 -12 -12 -13 -13 -13 -13 -13 -13 -13 -13 -12 -12 -12 -12 -12 -12 -12 -12 -12 -12 -13 -13
-10 -10 -10 -10 -10 -10 -10 -10 -11 -11 -12 -11 -11 -11 -12 -12 -13 -13 -13 -13 -13 -13 -13 -13 -13 -13 -13 -13 -13 -13 -13 -13 -12 -12 -12 -12 -12 -12 -12 -12 -12 -12 -12
-10 -10 -10 -10 -10 -10 -11 -11 -11 -11 -11 -12 -12 -12 -12 -12 -13 -13 -13 -13 -13 -13 -13 -13 -13 -13 -13 -12 -12 -13 -13 -13 -13 -13 -13 -12 -13 -13 -13 -13 -12 -12 -13
-10 -10 -10 -11 -11 -11 -11 -11 -11 -11 -12 -12 -12 -12 -12 -12 -13 -13 -13 -13 -13 -13 -13 -13 -13 -13 -13 -13 -13 -13 -13 -13 -13 -13 -13 -13 -13 -13 -13 -13 -13 -13 -13
-11 -11 -11 -11 -11 -11 -11 -12 -12 -12 -12 -12 -12 -12 -12 -12 -12 -12 -13 -13 -13 -13 -13 -13 -13 -13 -13 -13 -13 -13 -13 -13 -13 -13 -13 -13 -14 -14 -14 -14 -14 -14 -13
-11 -11 -11 -11 -11 -12 -12 -12 -12 -12 -12 -12 -12 -12 -12 -12 -13 -13 -13 -13 -13 -13 -13 -12 -12 -12 -12 -13 -13 -13 -13 -13 -13 -13 -14 -14 -14 -14 -13 -13 -14 -14 -14
-11 -11 -11 -11 -12 -12 -12 -12 -12 -12 -13 -12 -12 -12 -12 -12 -12 -12 -13 -13 -13 -13 -13 -13 -12 -12 -12 -13 -13 -14 -14 -13 -13 -13 -14 -14 -13 -13 -13 -14 -14 -14 -15
-12 -12 -12 -12 -12 -12 -12 -12 -12 -12 -12 -13 -13 -12 -12 -12 -12 -12 -12 -12 -13 -13 -13 -13 -13 -13 -13 -14 -14 -14 -13 -13 -13 -13 -13 -13 -13 -13 -13 -14 -14 -14 -15
-13 -12 -12 -12 -12 -12 -12 -12 -13 -13 -12 -12 -13 -13 -13 -12 -12 -12 -13 -13 -12 -13 -13 -13 -13 -13 -14 -14 -14 -13 -13 -14 -13 -13 -13 -13 -13 -13 -14 -14 -15 -15 -16
-13 -13 -13 -13 -13 -13 -13 -13 -13 -13 -13 -13 -13 -13 -13 -13 -13 -13 -13 -13 -13 -13 -13 -13 -13 -13 -14 -14 -14 -13 -13 -13 -13 -13 -13 -13 -13 -13 -14 -15 -15 -16 -16
-13 -13 -13 -13 -14 -14 -13 -14 -14 -14 -14 -13 -13 -13 -13 -13 -13 -13 -13 -13 -13 -14 -14 -14 -14 -14 -14 -14 -14 -13 -14 -14 -13 -14 -13 -13 -13 -14 -15 -15 -15 -16 -15
-14 -14 -14 -14 -14 -14 -14 -14 -14 -14 -14 -14 -15 -14 -13 -13 -13 -13 -14 -14 -14 -14 -14 -15 -14 -14 -14 -14 -14 -13 -14 -14 -13 -14 -14 -14 -14 -15 -15 -15 -16 -16 -16
-15 -14 -14 -15 -14 -15 -15 -15 -15 -14 -15 -15 -14 -14 -14 -15 -14 -14 -14 -14 -14 -14 -14 -15 -15 -14 -14 -14 -14 -14 -14 -14 -14 -14 -14 -14 -14 -15 -15 -15 -15 -15 -16
-15 -15 -15 -15 -15 -15 -15 -15 -15 -15 -15 -14 -14 -14 -14 -14 -14 -14 -14 -15 -14 -14 -14 -15 -15 -15 -15 -15 -15 -15 -15 -15 -15 -15 -15 -15 -15 -15 -15 -15 -16 -15 -16
-15 -15 -15 -15 -15 -15 -15 -15 -15 -15 -15 -15 -15 -15 -15 -15 -15 -15 -15 -15 -14 -14 -15 -15 -15 -15 -15 -15 -15 -15 -15 -15 -15 -15 -15 -15 -15 -16 -16 -16 -16 -16 -16
-16 -16 -16 -16 -16 -15 -15 -16 -15 -15 -15 -15 -15 -15 -15 -15 -15 -15 -15 -15 -15 -15 -15 -15 -15 -14 -15 -15 -15 -15 -15 -15 -15 -15 -15 -16 -16 -16 -16 -16 -16 -16 -16
-16 -16 -16 -16 -16 -16 -16 -15 -15 -15 -15 -15 -15 -15 -15 -15 -16 -16 -16 -16 -16 -16 -16 -15 -15 -15 -15 -16 -16 -15 -15 -15 -15 -16 -15 -15 -15 -15 -16 -16 -16 -17 -17
-16 -16 -16 -16 -16 -16 -15 -15 -15 -15 -16 -16 -16 -15 -15 -16 -16 -16 -16 -16 -15 -15 -15 -15 -15 -15 -15 -15 -16 -16 -16 -16 -16 -16 -16 -16 -16 -17 -19 -19 -20 -21 -22
-16 -16 -17 -17 -16 -16 -15 -15 -15 -16 -16 -16 -16 -16 -16 -16 -16 -16 -15 -15 -15 -15 -15 -15 -15 -15 -16 -16 -16 -16 -16 -16 -16 -17 -18 -19 -20 -20 -20 -21 -23 -23 -23
-17 -17 -17 -16 -16 -15 -16 -16 -16 -16 -16 -16 -16 -16 -16 -16 -16 -15 -15 -15 -15 -15 -15 -15 -16 -16 -16 -16 -16 -17 -19 -20 -21 -21 -21 -22 -21 -21 -22 -22 -23 -24 -25
-17 -17 -16 -16 -16 -16 -16 -16 -16 -16 -16 -16 -16 -16 -16 -16 -15 -15 -15 -15 -15 -16 -16 -16 -17 -17 -18 -19 -21 -21 -21 -21 -22 -22 -22 -22 -22 -22 -22 -23 -24 -25 -25
-17 -17 -17 -17 -17 -16 -16 -16 -16 -16 -16 -16 -16 -16 -16 -15 -16 -16 -16 -16 -16 -16 -17 -18 -19 -21 -21 -21 -22 -22 -22 -22 -22 -23 -23 -23 -23 -23 -23 -24 -25 -26 -26
Height
5839 5838 5838 5837 5837 5836 5835 5835 5835 5834 5833 5833 5833 5832 5832 5830 5831 5830 5829 5827 5826 5825 5824 5823 5821 5820 5819 5818 5817 5816 5815 5814 5812 5809 5807 5805 5803 5802 5799 5795 5792 5788 5785
5836 5835 5833 5833 5832 5831 5831 5829 5829 5828 5828 5827 5827 5826 5825 5824 5823 5822 5822 5820 5819 5817 5816 5816 5815 5814 5813 5813 5811 5810 5808 5807 5803 5801 5798 5796 5794 5792 5789 5786 5783 5778 5775
5831 5830 5828 5828 5827 5826 5825 5824 5823 5822 5822 5822 5821 5820 5818 5818 5817 5816 5815 5813 5812 5812 5811 5810 5809 5807 5806 5806 5805 5802 5800 5799 5796 5793 5788 5786 5784 5780 5781 5777 5774 5769 5766
5827 5826 5823 5822 5821 5820 5820 5820 5819 5817 5816 5816 5815 5814 5812 5812 5811 5810 5808 5807 5806 5805 5804 5803 5801 5800 5798 5799 5796 5795 5792 5789 5787 5780 5779 5776 5771 5768 5765 5766 5763 5759 5757
5823 5821 5820 5819 5818 5816 5815 5814 5813 5813 5812 5811 5810 5808 5807 5806 5804 5803 5801 5800 5799 5798 5798 5796 5793 5791 5788 5788 5787 5785 5782 5779 5775 5772 5768 5763 5762 5756 5752 5748 5751 5748 5746
5816 5815 5814 5813 5812 5811 5810 5809 5808 5808 5807 5806 5804 5802 5801 5800 5798 5797 5795 5793 5791 5789 5789 5788 5786 5782 5779 5778 5776 5773 5771 5769 5765 5762 5757 5755 5750 5747 5741 5738 5734 5734 5732
5808 5807 5806 5806 5805 5804 5804 5803 5802 5802 5800 5799 5798 5797 5795 5794 5792 5790 5788 5786 5783 5781 5779 5777 5775 5772 5768 5766 5763 5761 5760 5757 5753 5751 5747 5743 5740 5734 5730 5726 5722 5720 5718
5802 5801 5800 5799 5799 5798 5797 5797 5797 5796 5794 5793 5792 5791 5789 5787 5786 5783 5781 5778 5775 5771 5768 5767 5764 5760 5757 5755 5751 5748 5746 5742 5740 5737 5733 5730 5727 5721 5717 5713 5709 5707 5704
5793 5793 5792 5791 5792 5791 5791 5790 5790 5789 5788 5787 5785 5784 5781 5779 5777 5774 5771 5768 5764 5760 5756 5751 5750 5747 5744 5741 5738 5736 5733 5730 5728 5724 5719 5716 5713 5708 5703 5700 5696 5692 5691
5785 5785 5784 5784 5784 5784 5784 5783 5782 5781 5780 5778 5776 5774 5772 5769 5766 5763 5760 5755 5751 5746 5743 5739 5735 5732 5731 5727 5725 5723 5720 5716 5713 5709 5706 5703 5700 5696 5691 5687 5685 5682 5679
5776 5776 5777 5776 5775 5774 5774 5774 5773 5772 5771 5769 5767 5764 5762 5759 5756 5752 5748 5743 5738 5733 5728 5724 5721 5719 5715 5713 5711 5709 5706 5702 5700 5697 5693 5690 5687 5681 5677 5673 5671 5669 5665
5767 5767 5766 5767 5766 5764 5763 5762 5761 5760 5758 5757 5756 5753 5750 5747 5743 5739 5735 5729 5724 5719 5715 5710 5707 5704 5701 5699 5697 5694 5691 5688 5686 5683 5681 5678 5673 5670 5665 5663 5658 5655 5653
5757 5758 5757 5755 5753 5752 5751 5750 5748 5746 5745 5743 5740 5739 5736 5733 5729 5724 5719 5713 5708 5704 5700 5696 5693 5690 5687 5685 5683 5679 5674 5674 5673 5671 5668 5663 5660 5657 5645 5647 5646 5643 5640
5746 5745 5744 5743 5742 5741 5739 5736 5734 5732 5730 5727 5725 5723 5720 5716 5711 5705 5700 5695 5691 5687 5684 5682 5678 5676 5674 5671 5667 5663 5660 5657 5657 5655 5654 5648 5645 5642 5636 5633 5632 5630 5626
5734 5733 5732 5731 5730 5727 5724 5721 5719 5717 5714 5712 5711 5710 5705 5699 5693 5687 5682 5678 5674 5671 5669 5667 5664 5661 5659 5655 5653 5649 5648 5645 5644 5641 5639 5634 5631 5627 5623 5619 5618 5614 5611
5719 5720 5720 5719 5716 5714 5710 5708 5706 5703 5701 5699 5698 5694 5688 5682 5676 5670 5666 5662 5659 5656 5655 5653 5651 5648 5646 5644 5641 5639 5637 5633 5629 5626 5623 5618 5615 5612 5608 5605 5601 5597 5592
5708 5708 5707 5705 5702 5700 5697 5695 5692 5690 5687 5685 5681 5677 5671 5665 5659 5654 5650 5647 5644 5642 5641 5639 5637 5635 5635 5631 5627 5624 5620 5617 5614 5611 5607 5604 5601 5596 5592 5588 5583 5578 5576
5693 5693 5693 5691 5689 5687 5684 5681 5679 5675 5671 5667 5664 5660 5655 5649 5645 5640 5637 5633 5630 5627 5627 5624 5623 5621 5619 5617 5613 5608 5605 5601 5599 5595 5591 5587 5582 5577 5574 5570 5564 5559 5556
5681 5681 5680 5679 5677 5674 5672 5669 5666 5662 5656 5652 5648 5644 5640 5636 5631 5628 5625 5622 5619 5615 5613 5610 5609 5607 5605 5601 5597 5593 5589 5584 5580 5576 5571 5567 5562 5557 5553 5548 5542 5537 5532
5668 5668 5667 5666 5665 5662 5659 5656 5653 5649 5644 5639 5634 5630 5626 5623 5620 5617 5613 5610 5608 5604 5600 5596 5594 5591 5588 5585 5581 5577 5571 5565 5560 5554 5548 5543 5538 5532 5527 5521 5517 5512 5508
5655 5655 5655 5654 5651 5647 5644 5642 5639 5636 5632 5627 5622 5618 5614 5610 5606 5604 5601 5599 5596 5593 5590 5586 5582 5577 5572 5567 5561 5556 5551 5545 5538 5532 5525 5519 5513 5505 5498 5492 5487 5482 5478
5642 5642 5641 5640 5636 5634 5631 5628 5626 5622 5619 5614 5611 5607 5603 5600 5596 5593 5590 5587 5583 5579 5575 5570 5564 5559 5553 5547 5541 5535 5528 5521 5514 5505 5498 5490 5483 5476 5470 5464 5460 5456 5454
5631 5630 5627 5625 5623 5621 5619 5615 5612 5609 5605 5602 5599 5596 5592 5589 5586 5582 5577 5572 5567 5561 5554 5548 5542 5536 5530 5524 5517 5509 5502 5494 5487 5479 5472 5466 5461 5457 5452 5447 5443 5441 5440
5618 5616 5614 5612 5611 5608 5605 5603 5599 5596 5593 5590 5587 5584 5579 5575 5570 5565 5560 5555 5547 5540 5534 5527 5520 5513 5505 5499 5491 5484 5477 5471 5467 5462 5456 5452 5448 5443 5439 5435 5431 5429 5429
5606 5604 5601 5599 5598 5596 5594 5591 5587 5584 5581 5577 5574 5570 5565 5560 5554 5548 5540 5533 5526 5519 5511 5503 5496 5490 5482 5475 5471 5467 5462 5458 5453 5448 5443 5440 5436 5431 5427 5423 5419 5417 5416
5594 5591 5589 5588 5587 5585 5582 5580 5576 5573 5569 5565 5560 5555 5549 5543 5536 5528 5520 5513 5507 5498 5490 5483 5476 5469 5466 5461 5456 5451 5447 5443 5439 5435 5431 5427 5424 5420 5416 5412 5409 5406 5405
Wind_Speed
20 21 20 18 18 21 25 25 26 30 33 33 33 34 33 34 34 34 34 35 34 33 33 34 35 36 36 36 37 38 39 40 41 43 44 45 46 46 46 46 51 48 46
16 17 17 16 19 22 23 25 26 28 27 29 31 33 35 34 33 33 33 36 37 38 37 36 37 37 38 38 38 40 41 41 44 45 46 46 47 45 45 49 49 49 50
12 13 15 16 18 21 23 24 26 28 28 28 30 32 36 33 33 33 35 37 38 39 40 40 39 41 41 40 39 42 45 45 46 49 52 50 49 49 48 48 48 50 52
12 11 12 16 18 20 22 24 27 29 31 31 31 32 34 35 35 34 34 37 37 38 40 41 43 43 44 43 45 45 48 50 50 54 52 52 53 52 55 51 51 52 52
19 16 15 14 13 16 19 18 23 27 29 33 33 35 33 36 37 37 37 37 39 41 42 44 46 48 50 50 50 50 50 53 55 56 54 55 54 57 57 57 53 53 53
24 22 18 19 23 23 18 17 18 21 25 28 28 30 33 35 37 38 40 42 45 47 47 47 49 51 53 54 54 54 54 52 52 52 56 57 56 56 57 56 57 56 54
27 26 24 23 24 28 27 23 22 23 25 26 30 33 36 38 40 42 45 48 51 53 54 54 56 56 58 58 58 58 58 55 55 54 54 56 57 59 60 60 58 56 55
27 28 28 28 27 29 28 23 22 25 24 27 30 34 36 39 43 46 50 54 58 60 62 61 62 62 62 61 61 60 58 57 58 58 56 56 54 56 57 57 54 52 50
30 31 32 32 31 33 30 27 25 26 29 31 32 35 37 38 40 43 46 49 52 55 56 59 58 61 62 61 61 58 59 59 57 55 55 54 51 52 55 54 55 54 54
33 35 35 34 36 37 35 34 32 33 35 36 39 40 42 44 43 45 49 54 58 61 60 59 61 62 61 61 61 60 57 58 56 54 53 52 54 57 58 57 53 52 49
35 37 37 38 38 40 42 42 42 42 41 41 42 44 46 49 49 51 54 56 57 56 57 59 61 60 64 59 55 53 54 54 52 53 55 54 56 61 58 56 49 40 38
35 37 40 42 43 44 46 47 49 49 49 49 48 49 50 52 56 56 57 59 55 58 60 58 58 59 60 59 55 51 56 57 53 56 55 58 59 58 53 44 40 41 42
33 35 39 43 45 46 49 51 53 55 56 57 56 55 57 59 59 60 59 59 57 53 52 55 55 55 57 60 56 56 60 52 55 66 60 56 59 62 38 37 41 45 47
39 40 41 43 46 50 55 57 60 60 61 62 62 64 65 67 61 64 63 59 53 52 50 50 52 53 54 63 63 58 69 60 59 54 58 53 59 51 54 43 46 52 54
46 47 47 50 50 55 59 61 60 60 62 65 64 66 66 62 65 67 62 56 51 49 50 49 50 54 52 56 69 62 69 60 66 60 65 54 55 54 51 49 53 57 61
44 48 48 51 57 61 58 58 60 62 67 70 64 59 61 66 66 60 59 54 51 49 49 47 50 53 54 55 61 69 68 65 60 66 68 63 60 60 59 60 58 65 69
47 50 54 58 59 57 62 65 68 69 66 63 66 67 65 63 60 56 54 51 48 48 51 46 48 51 54 58 62 64 62 65 65 67 67 69 68 68 68 67 72 75 75
52 53 56 58 58 63 65 66 67 65 66 69 67 62 56 55 53 50 49 49 49 49 59 50 50 51 52 58 65 67 68 68 69 68 69 70 69 68 72 75 82 85 85
57 64 61 64 63 64 65 63 60 63 65 63 61 56 52 49 46 45 45 45 46 48 50 52 51 53 60 59 60 63 66 69 70 71 73 75 77 79 82 85 88 88 89
64 63 62 60 61 66 63 62 63 63 58 59 55 48 46 44 41 43 44 42 42 43 45 48 51 55 57 62 63 64 68 73 76 79 81 82 83 87 91 89 90 92 92
59 61 58 61 64 63 65 63 66 63 60 54 47 44 41 40 39 38 38 41 44 46 49 52 56 61 64 66 69 71 73 76 79 81 84 87 90 93 94 90 84 80 79
57 54 49 54 60 62 64 66 62 54 52 48 44 41 40 40 42 45 48 50 54 56 59 61 63 66 68 70 72 75 78 82 86 89 91 91 81 74 68 66 63 59 56
44 51 55 59 60 62 59 55 51 48 48 47 44 42 39 41 46 51 54 57 61 63 64 64 65 69 73 77 80 84 87 89 83 75 67 63 56 51 48 46 45 42 41
46 51 55 54 51 50 48 47 46 46 47 47 46 47 52 56 57 58 62 67 67 67 69 73 76 79 82 84 84 74 63 55 49 46 46 44 43 42 43 42 41 43 37
43 49 49 47 45 43 41 40 42 43 45 47 49 53 55 57 63 68 69 70 72 74 78 80 82 80 69 60 52 47 46 48 47 44 41 41 42 42 40 38 38 40 42
43 42 39 37 37 39 41 43 44 44 46 49 53 57 61 66 69 71 72 73 77 81 81 74 62 55 51 51 52 51 49 47 46 44 43 42 41 40 38 36 32 30 28
Wind_Direction
266 271 266 256 254 253 256 259 261 262 262 268 272 274 275 272 271 278 282 284 285 283 280 278 278 277 277 277 277 278 280 283 283 284 285 285 287 288 288 288 288 294 289
288 288 281 271 259 261 260 263 264 263 263 265 266 271 274 276 278 280 281 279 282 283 281 280 279 278 279 280 280 280 280 282 285 287 286 286 287 290 290 288 288 290 292
297 295 289 285 269 267 266 270 275 278 276 274 274 273 277 280 280 281 277 277 278 281 285 286 283 282 281 281 281 283 283 285 288 289 288 289 288 285 285 285 286 287 289
301 305 299 298 292 282 279 278 278 281 282 284 281 278 277 282 282 281 279 280 281 280 281 282 282 281 283 283 284 283 285 285 284 292 286 286 287 288 287 285 286 289 289
280 290 286 292 307 298 281 277 280 278 281 282 284 285 290 282 287 291 293 288 281 280 282 283 284 285 285 286 285 284 283 285 284 285 287 285 285 287 287 289 289 287 288
280 279 284 289 295 307 306 289 276 274 276 278 281 285 284 281 282 284 283 284 286 287 284 282 280 279 281 282 283 282 282 284 285 286 286 284 284 285 286 289 292 291 289
279 283 286 288 291 298 307 307 302 294 294 294 292 292 287 283 281 281 280 278 280 281 282 283 280 279 281 284 284 286 285 282 283 289 287 284 282 282 283 286 289 287 288
276 278 281 283 287 293 300 293 300 291 292 292 286 283 283 283 282 280 279 280 280 282 282 282 281 281 279 278 279 280 282 282 286 288 287 289 286 285 286 286 286 285 283
275 275 276 280 284 282 285 282 279 283 284 282 284 283 281 280 280 280 280 280 281 282 283 283 281 278 278 279 278 279 281 284 286 287 287 288 287 284 283 281 279 278 282
271 272 274 280 282 277 275 276 275 278 279 279 281 281 283 283 282 281 283 285 284 281 281 283 284 284 281 278 279 281 281 283 282 281 282 285 288 288 285 282 282 284 287
267 271 275 277 278 276 274 274 277 280 276 272 275 279 282 283 284 283 285 287 285 281 279 277 276 277 281 279 279 281 281 279 282 280 281 282 288 292 283 281 278 280 289
263 267 269 271 273 272 272 274 275 277 279 278 276 278 282 285 286 283 284 285 286 280 278 279 276 276 278 278 278 272 274 276 277 281 282 281 286 281 282 281 289 290 290
261 261 265 267 267 269 271 273 275 276 279 280 279 279 281 286 288 288 288 291 288 282 279 276 275 275 276 277 276 276 271 274 272 273 280 282 284 280 283 281 292 296 303
268 265 263 263 266 271 277 276 276 278 279 279 281 284 289 293 295 293 295 295 288 282 281 279 275 273 269 271 270 277 277 280 281 282 280 285 286 288 284 292 295 300 304
265 267 267 271 270 272 273 275 278 280 280 280 283 290 296 296 295 296 296 292 286 283 282 279 278 272 270 268 272 274 279 282 284 280 279 279 281 286 289 289 290 296 299
266 270 262 264 269 271 275 275 275 278 283 287 294 295 297 296 296 296 294 291 288 283 282 277 274 272 273 276 277 275 275 278 275 278 281 281 283 286 287 289 289 297 299
265 261 261 265 272 266 269 275 281 287 290 293 296 296 292 293 293 291 292 291 287 283 284 276 275 277 279 276 275 279 280 280 282 279 277 275 280 287 292 294 293 295 295
258 256 261 262 262 271 278 282 287 291 296 296 295 295 294 289 290 291 291 290 290 285 277 274 274 274 277 282 282 281 284 284 286 286 282 283 284 286 288 288 290 290 290
258 265 263 267 270 274 280 286 288 296 295 297 298 295 292 292 290 289 288 292 293 290 284 281 274 274 285 285 286 284 283 286 286 286 288 287 286 287 287 286 286 285 286
266 265 272 270 272 279 282 283 286 297 298 297 295 293 292 291 290 292 292 290 290 289 290 290 288 286 286 285 285 285 286 286 286 284 284 283 281 280 281 283 282 280 281
266 267 268 271 277 280 282 281 284 292 292 292 290 291 290 289 291 290 291 292 290 289 288 287 284 281 281 283 284 284 284 283 283 283 283 283 284 284 286 288 285 281 277
265 273 275 276 275 280 282 284 287 287 289 288 287 289 292 293 292 291 293 291 289 288 288 288 286 285 284 284 283 283 284 284 286 287 288 291 293 289 286 282 280 278 277
261 265 270 274 277 278 283 286 285 284 287 286 284 288 290 294 294 294 294 294 293 292 290 289 289 289 289 290 290 290 291 294 297 295 292 293 294 293 292 289 285 278 278
265 273 276 277 279 283 284 284 283 284 287 284 282 285 289 292 293 294 296 296 295 294 293 294 295 295 295 295 298 299 297 296 296 295 295 296 296 297 296 292 288 282 281
275 277 278 277 278 279 282 285 286 286 285 286 287 289 291 291 293 294 295 296 295 295 296 297 298 301 302 301 298 297 297 297 297 296 295 296 296 295 296 294 291 284 281
276 276 271 273 274 279 281 284 286 288 289 290 290 290 290 292 293 295 295 295 295 297 301 302 302 301 300 298 298 298 297 296 296 294 294 295 294 294 295 297 295 290 284